Terminal Aerodrome Forecast
Issued by NWS

Home | Current Version | Previous Version | Text Only | Print | Product List | Glossary On
Versions: 1 2 3 4 5 6 7 8 9 10 11 12 13 14 15 16 17
000
FTAK31 PANC 260526
TAFADL
TAF
PADL 260526Z 2606/2706 17008KT P6SM VCSH SCT025 BKN035
     FM261000 15005KT P6SM VCSH SCT025 OVC030
     FM262100 17013G20KT P6SM OVC035=

USA.gov is the U.S. government's official web portal to all federal, state and local government web resources and services.